Tracking 30703 objects as of 12-Jun-2025
HD Live streaming from Space Station
objects crossing your sky now

SL-3 R/B

Track SL-3 R/B now!
10-day predictions
SL-3 R/B is classified as:


NORAD ID: 13068
Int'l Code: 1982-013B
Perigee: 498.9 km
Apogee: 531.6 km
Inclination: 81.2 °
Period: 94.8 minutes
Semi major axis: 6886 km
RCS: 5.3655 m2 (large)
Launch date: February 19, 1982
Source: Commonwealth of Independent States (former USSR) (CIS)
Launch site: PLESETSK MISSILE AND SPACE COMPLEX (PKMTR)

Note: This is a ROCKET BODY
Your satellite tracking list
Your tracking list is empty




NASA's NSSDC Master Catalog

Two Line Element Set (TLE):
1 13068U 82013B   25163.17893263  .00003103  00000-0  14500-3 0  9998
2 13068  81.1749 117.1311 0023790  14.4535 345.7370 15.19253940363503
Source of the keplerian elements: AFSPC